Regional Weather Roundup
Issued by NWS Wakefield, VA

Home | Current Version | Previous Version | Text Only | Print | Product List | Glossary On
Versions: 1 2 3 4 5 6 7 8 9 10 11 12 13 14 15 16 17 18 19 20 21 22 23 24 25 26 27 28
000
ASUS41 KAKQ 222015
RWRAKQ

REGIONAL WEATHER ROUNDUP
NATIONAL WEATHER SERVICE WAKEFIELD VA
300 PM EST WED FEB 22 2017

Note: "fair" indicates few or no clouds below 12,000 feet with no
significant weather and/or obstructions to visibility. * = Denotes
station may not report precipitation (e.g., rain,snow,etc.),
thunder or fog.

VAZ042-051-052>054-056-222100-
NORTHERN VIRGINIA

CITY           SKY/WX    TMP DP  RH WIND       PRES   REMARKS
WASH NATIONAL  CLOUDY    60  48  64 S10       29.93F
DULLES         CLOUDY    63  46  54 SW7       29.91F
FORT BELVOIR   MOSUNNY   61  47  58 S5        29.92F
QUANTICO       CLOUDY    55  50  83 SW5       29.94F
FREDERICKSBRG* MOSUNNY   64  51  63 SW6       29.92F
STAFFORD*      MOSUNNY   63  50  61 S7        29.96F
WARRENTON      MOSUNNY   66  45  47 S9        29.91S
CULPEPER*      MOSUNNY   64  50  60 S7        29.92F
MANASSAS*      CLOUDY    65  48  54 S6        29.91F
LEESBURG*      CLOUDY    64  48  55 MISG      29.92S
WINCHESTER     MOSUNNY   63  45  51 CALM      29.89S
FRONT ROYAL*   PTCLDY    64  46  52 SW7       29.88F
LURAY*         PTCLDY    63  52  67 S5        29.89F
$$

VAZ048-049-060>072-079>083-222100-
CENTRAL AND SOUTH CENTRAL VIRGINIA

CITY           SKY/WX    TMP DP  RH WIND       PRES   REMARKS
RICHMOND       LGT RAIN  55  55 100 S7        29.96S FOG
CHESTERFIELD*  CLOUDY    55  39  54 S7        29.98F
PETERSBURG*    CLOUDY    55  51  88 CALM      29.97F
HANOVER        CLOUDY    57  51  80 S9        29.96F
TAPPAHANNOCK*  CLOUDY    60  48  63 S5        29.96F
QUINTON*       CLOUDY    56  56 100 S8        29.96S
CHARLOTTSVILLE CLOUDY    63  50  62 S8        29.91F
GORDONSVILLE*  PTCLDY    61  51  70 SW8       29.91F
ORANGE*        CLOUDY    61  50  67 S8        29.93S
LOUISA*        MOSUNNY   63  55  77 S7        29.92S
BUMPASS*       CLOUDY    60  52  75 SW7       29.94S
FARMVILLE*     LGT RAIN  57  56  94 S3        29.95S
CREWE*         CLOUDY    55  55 100 CALM      29.96S
FORT PICKETT*  CLOUDY    56  53  88 CALM      29.96F
CHASE CITY*    CLOUDY    55  53  95 CALM      29.97S
CLARKSVILLE*   CLOUDY    55  54  94 CALM      29.96F
SOUTH HILL*    CLOUDY    58  52  80 CALM      30.02S
LAWRENCEVILLE* CLOUDY    59  50  72 CALM      29.96F
EMPORIA*       CLOUDY    59  50  72 CALM      29.98F
$$

VAZ088>098-222100-
SOUTHEAST VIRGINIA

CITY           SKY/WX    TMP DP  RH WIND       PRES   REMARKS
NORFOLK        CLOUDY    62  50  64 NE3       29.95F
VIRGINIA BEACH CLOUDY    66  49  54 S7        29.95S
NORFOLK NAVAL  CLOUDY    64  50  60 NW7       29.97S
WEST POINT*    CLOUDY    57  54  91 CALM      29.98S
SALUDA*        CLOUDY    57  55  91 SW5       29.96S
NEWPORT NEWS   CLOUDY    60  50  69 NW7       29.97S
LANGLEY AFB    LGT RAIN  63  52  67 W9        29.95F
FORT EUSTIS    PTSUNNY   58  51  76 NW3       29.95S
WILLIAMSBURG*  CLOUDY    59  54  82 CALM      29.98S
HR EXEC AP*    CLOUDY    66  50  55 W6        29.94F
FRANKLIN*      CLOUDY    61  51  70 CALM      29.97F
US460-WAKEFLD  LGT RAIN  57  53  86 CALM      29.97F
$$

VAZ020-022-025-037-045-222100-
WEST CENTRAL AND SOUTHWEST VIRGINIA

CITY           SKY/WX    TMP DP  RH WIND       PRES   REMARKS
STAUNTON*      CLOUDY    61  49  65 SW8       29.93S
WAYNESBORO*    CLOUDY    60  49  68 SW9       29.92F
HOT SPRINGS VA CLOUDY    50  50 100 W12       29.95S
LYNCHBURG      LGT RAIN  54  52  93 SW5       29.97S
DANVILLE       LGT RAIN  56  53  90 CALM      29.96F
SOUTH BOSTON*  CLOUDY    55  54  95 CALM      29.97F
MARTINSVILLE   LGT RAIN  54  52  94 CALM      29.99F
ROANOKE        CLOUDY    55  51  86 CALM      29.97F
BLACKSBURG     DRIZZLE   51  50  98 NW3       29.99S
DUBLIN*        LGT RAIN  54  52  94 CALM      29.98S
MARION*        LGT RAIN  53  51  95 E3        29.98S
HILLSVILLE*    LGT RAIN  53  53 100 S6        29.96S
RICHLANDS*     CLOUDY    55  53  94 CALM      29.94S
WISE*          CLOUDY    55  55 100 CALM      29.94F
ABINGDON*      DRIZZLE   56  55  97 E6        29.94S
$$

MDZ021>025-VAZ099-100-222100-
SOUTHERN MARYLAND AND THE DELMARVA PENINSULA

CITY           SKY/WX    TMP DP  RH WIND       PRES   REMARKS
PATUXENT RIVER CLOUDY    58  51  78 VRB6      29.94F
BAY BRIDGE APT CLOUDY    57  46  67 S7        29.93S
LEONARDTOWN    MOSUNNY   57  46  67 SW5       29.96S
DOVER          MOSUNNY   53  51  94 E6        29.92F
GEORGETOWN     CLOUDY    62  50  64 SW10      29.94S
EASTON         SUNNY     59  46  63 SW9       29.97F
CAMBRIDGE        N/A     57  48  72 S5        29.94F
SALISBURY      CLOUDY    60  51  72 SW6       29.94F
OCEAN CITY     CLOUDY    53  47  79 S8        29.95F
WALLOPS ISLAND CLOUDY    54  49  83 S6        29.97F
ACCOMACK*      CLOUDY    62  51  66 SW6       29.96S
$$

NCZ012>017-030>032-222100-
NORTH CENTRAL AND EASTERN NORTH CAROLINA

CITY           SKY/WX    TMP DP  RH WIND       PRES   REMARKS
ROANOKE RAPIDS MOCLDY    64  52  63 NE3       29.95F
RALEIGH        CLOUDY    70  50  49 CALM      29.94F
ELIZABETH CITY CLOUDY    66  51  58 E9        29.97S
AHOSKIE*       NOT AVBL
EDENTON*       CLOUDY    70  50  47 S3        29.96F
CURRITUCK*     CLOUDY    68  49  50 SE3       29.97S
KILL DEVIL HLS NOT AVBL
MANTEO         PTSUNNY   67  50  54 S12       29.98S
CAPE HATTERAS  SUNNY     74  53  48 S8        29.97F
TARBORO*       NOT AVBL
GOLDSBORO      CLOUDY    72  49  44 E8        29.91F
WASHINGTON     PTSUNNY   72  49  44 SE8       29.94F
GREENVILLE     CLOUDY    73  46  38 CALM      29.96F
NEW BERN       CLOUDY    71  51  49 S9        29.95F
WILMINGTON     MOSUNNY   72  55  55 SE10      29.93F
$$

VAZ048-222100-
ELSEWHERE

CITY           SKY/WX    TMP DP  RH WIND       PRES   REMARKS
HARRISBURG PA  PTSUNNY   61  41  47 S3        29.89F
BALTIMORE      CLOUDY    62  45  53 E6        29.91F
ANNAPOLIS      MOSUNNY   53  46  77 S8        29.93F
ANDREWS AFB    CLOUDY    64  47  54 SW10      29.91F
PHILADELPHIA   CLOUDY    57  42  57 S7        29.92F
HENDERSON NC   CLOUDY    57  49  73 CALM      29.96F
GREENSBORO     LGT RAIN  59  56  89 N6        29.94F
ROCKY MOUNT    CLOUDY    70  49  47 S5        29.94F
$$

VAZ100-222100-
MARINE

STATION/POSITION TIME  TEMP    WIND        PRES    WAVE   SWELL
                       AIR SEA DIR/SP/G            HT/PER HT/PER
                 (UTC) (F)     (DEG/KT/KT) (MB)    (FT/S) (FT/S)
CAPE MAY NJ      1948   51 43  130/  9/ 11 1013.2F
LEWES DE         1948   62 43  250/  8/ 12 1013.3F
OCEAN-CITY-INLET 1948   46 44  220/  9/ 10 1014.6F
WACHAPREAGUE VA  1948   56 50  220/  6/  8 1014.7F
THOMAS POINT MD  2000   49 42  180/ 13/ 13   N/A
GOOSES REEF MD   2000   46 44  160/ 12/ 14 1014.2    1/ 2
COVE POINT MD    1948   45     180/  8/  9 1014.5F
SOLOMONS ISLAND  1948   51 44  110/  3/  4   N/A
BISHOPS HEAD MD  1948   51 46  190/  9/  9 1014.4F
POTOMAC MD       2000   46 44  110/  4/  4 1013.3    0
CAMBRIDGE MD     1948   57 42  190/  7/ 10 1013.2F
LEWISETTA VA     1948   59 44  240/  6/  8 1013.8F
RAPPAHANNOCK LGT 1948          190/ 10/ 11 1015.1F
YORK RVR RNG VA  1948   57     280/ 10/ 10 1014.0F
YORKTOWN VA      1948   60 47  260/  6/  7 1014.4F
JAMESTOWN VA     2000   55 51  350/  2/  2   N/A     0
DOMINION TERM VA 1948   59     330/  9/ 12 1014.6F
KIPTOPEKE VA     1948      48  160/  5/  6   N/A
CHES BAY BRIDGE  1948   57 47   80/  5/  5 1014.3F
CAPE HENRY VA    1948   59     150/  5/  8   N/A
WILLOUBY STN VA  1948   60     290/ 11/ 11 1015.3F
S CRANEY ISL VA  1948   61     320/  5/  9 1014.3F
CAPE HENRY BUOY  1942      49                N/A     3/ 9   2/11
OFFSHORE WE BUOY 1951      48                N/A     3/ 8   2/11
64NM E OF VA BCH 1950   59 56  180/  4/  6 1015.0F   4/10   3/10
DUCK PIER NC     1948   55 48  140/  7/  8 1014.3F
44100 DUCK FRF   1935      49                N/A     3/ 9   2/11
44056 DUCK FRF   1930      51                N/A     3/ 8   2/11
OREGON INLET NC  1942   60 52   80/  5/  7 1015.1F
HATTERAS NC      1948   67 59  150/  6/  9 1014.6F
DIAMOND SHLS NC  1950   68 75  160/ 12/ 16 1014.7F   3/ 9   3/ 9
CAPE LOOKOUT NC  2000   65     160/  7/  8 1014.1F
$$




USA.gov is the U.S. government's official web portal to all federal, state and local government web resources and services.